Location: Reeth
(54.3881°N, 1.9432°W)
Time: 19:04:22
(UTC+00:00)

OTV 5 (USA 277) - Visible Passes

Search period start: 21 February 2019 00:00
Search period end: 03 March 2019 00:00
Orbit: 342 x 346 km, 54.5° (Epoch: 17 February)

Date Brightness Start Highest point End Pass type
(mag) Time Alt. Az. Time Alt. Az. Time Alt. Az.
25 Feb ? 19:24:06 10° SSW 19:25:20 17° S 19:25:20 17° S visible
26 Feb ? 19:47:04 10° SW 19:48:36 25° SSW 19:48:36 25° SSW visible
27 Feb ? 18:36:34 10° SSW 18:38:49 20° SE 18:40:19 14° ESE visible
27 Feb ? 20:10:29 10° WSW 20:11:46 23° WSW 20:11:46 23° WSW visible
28 Feb ? 18:59:31 10° SW 19:02:15 39° SSE 19:03:23 26° ESE visible
28 Feb ? 20:34:08 10° W 20:34:50 16° W 20:34:50 16° W visible
01 Mar ? 19:22:56 10° WSW 19:25:48 68° SSE 19:26:23 49° ESE visible
01 Mar ? 20:57:48 10° W 20:57:49 10° W 20:57:49 10° W visible
02 Mar ? 19:46:33 10° W 19:49:20 80° W 19:49:20 80° W visible
